Terminal Aerodrome Forecast
Issued by NWS Bismarck, ND

Home | Current Version | Previous Version | Graphics & Text | Print | Product List | Glossary On
Versions: 1 2 3 4 5 6 7 8 9 10 11 12 13 14 15 16 17 18 19 20 21 22
000
FTUS43 KBIS 271300 AAB
TAFBIS
TAF AMD
KBIS 271334Z 2714/2812 07006KT P6SM SCT015 BKN100
     FM271600 10010KT P6SM OVC015
     FM271800 15012KT 4SM -SN SCT008 OVC012
     FM272100 15014KT 3SM -FZRASN SCT005 OVC015
     FM280300 14010KT P6SM SCT015 SCT070=

USA.gov is the U.S. government's official web portal to all federal, state and local government web resources and services.